Temp
10 10 11 11 10 10 9 9 9 9 8 8 7 7 8 8 8 8 8 8 8 8 8 8 8 8 8 8 8 8 8 8 8 7 7 7 7 7 7 6 6 6 6
11 10 11 11 10 10 9 9 9 9 8 8 8 8 8 8 7 7 8 8 8 8 8 8 8 8 8 8 8 8 8 8 8 7 8 7 7 7 7 6 6 6 6
11 11 11 11 11 10 10 9 9 8 8 8 8 8 8 8 8 8 7 8 7 8 8 8 8 8 8 8 8 8 8 8 8 7 7 7 7 6 7 6 6 5 5
11 11 11 11 11 10 10 9 9 9 8 7 7 7 7 7 7 7 8 8 8 8 7 8 8 8 8 8 8 7 7 8 7 7 7 7 7 7 6 6 6 5 5
11 12 11 11 11 11 10 10 9 9 8 7 7 7 7 7 7 7 7 7 7 8 7 7 7 7 7 7 8 7 7 8 8 7 7 7 6 6 6 5 5 5 5
11 11 11 11 11 11 10 10 10 9 9 8 7 7 7 7 7 7 7 7 7 7 7 7 7 7 7 7 7 7 7 7 7 7 7 6 6 6 5 5 5 5 4
11 11 11 11 10 10 10 10 10 9 9 9 8 8 7 7 6 7 7 7 6 6 7 7 7 7 7 7 7 7 6 6 6 6 6 6 6 6 4 5 5 4 4
11 10 10 11 10 10 10 10 10 10 9 8 9 8 8 7 7 7 7 6 6 6 6 6 6 7 7 6 6 6 6 6 6 6 6 6 6 6 5 5 4 4 3
11 10 10 10 9 9 9 10 9 10 9 9 9 9 8 7 7 7 7 6 5 6 6 6 6 6 6 6 6 6 6 6 6 5 5 5 5 5 5 5 4 3 4
10 10 10 10 10 9 9 9 9 9 9 9 9 8 8 8 7 6 6 6 6 5 6 6 6 6 6 5 5 5 5 6 6 5 5 5 6 6 5 5 5 5 3
10 9 10 10 10 9 9 9 9 9 9 8 9 8 8 7 7 6 6 6 6 6 6 6 6 6 5 5 5 5 5 5 5 6 5 5 5 5 5 5 5 5 4
9 9 9 9 9 9 8 8 8 8 8 8 8 8 8 7 7 7 7 6 6 6 5 5 6 6 5 5 5 4 4 4 4 5 5 6 5 6 5 5 5 4 3
9 9 9 9 9 9 9 8 8 8 7 7 6 7 7 7 7 7 7 7 6 6 6 6 6 6 6 5 5 5 4 4 4 4 4 4 4 4 5 5 4 4 3
9 9 9 9 8 8 8 8 7 7 7 7 6 6 6 6 7 7 7 7 7 6 6 6 7 7 7 6 5 5 4 4 4 4 4 3 3 4 4 3 4 4 4
8 8 8 8 8 8 7 7 7 7 7 6 6 6 6 6 6 6 6 7 7 6 6 6 6 7 6 6 5 4 4 4 4 4 3 3 3 3 4 4 4 4 4
8 8 7 7 8 7 7 7 7 7 7 6 6 5 6 5 6 6 6 6 6 7 7 7 7 6 5 5 4 4 4 3 3 3 3 3 3 2 2 3 3 3 3
8 8 8 7 7 7 7 6 6 6 5 5 5 5 4 5 6 6 7 7 7 7 7 7 6 6 6 4 3 5 3 4 3 3 3 3 3 3 3 3 2 2 1
7 7 7 7 6 6 6 6 5 5 4 4 4 4 4 5 6 6 7 7 7 6 6 6 5 5 5 4 4 3 4 3 3 3 3 3 2 3 2 2 2 2 1
5 5 5 5 5 5 5 5 5 4 5 4 4 3 4 5 6 6 6 6 5 5 4 4 4 4 3 2 3 3 3 3 3 3 3 3 2 3 2 2 2 2 1
4 4 4 4 4 4 4 3 3 3 3 2 1 2 4 5 4 4 4 5 3 3 3 3 3 3 2 2 2 2 2 2 2 2 2 2 2 2 2 1 1 0 -0
3 3 3 3 2 3 1 2 2 3 2 3 3 2 2 3 3 2 1 2 2 3 3 3 2 2 2 2 2 2 2 2 2 1 2 1 1 1 1 1 0 0 -0
2 2 2 2 2 1 1 1 1 1 1 2 2 1 1 1 2 1 1 1 2 3 2 2 2 2 2 1 1 1 1 1 1 0 0 0 0 0 0 0 -0 -0 -0
2 2 2 2 1 1 1 1 2 2 1 2 1 2 1 1 1 2 2 2 2 2 2 1 1 1 1 0 0 1 1 0 0 0 0 0 -0 -0 -1 -1 -1 -1 -1
2 1 1 1 0 1 2 2 1 1 1 2 1 1 1 2 2 2 2 2 1 1 1 1 1 0 -0 -0 -1 -1 -1 -1 -1 -1 -1 -1 -2 -2 -2 -2 -2 -1 -2
2 2 -1 0 0 1 1 1 1 1 1 1 0 1 1 1 0 0 1 1 1 1 0 -0 -1 -1 -1 -1 -1 -2 -1 -2 -2 -2 -2 -2 -2 -2 -2 -1 -1 -1 -2
1 1 2 1 1 1 1 1 0 0 0 0 -0 0 -0 -0 0 0 1 1 0 -0 -0 -0 -1 -1 -1 -1 -1 -2 -2 -1 -1 -2 -2 -2 -2 -2 -2 -2 -2 -2 -2
Height
3150 3152 3152 3152 3150 3149 3146 3144 3143 3142 3141 3141 3142 3143 3144 3143 3144 3145 3145 3146 3146 3146 3146 3146 3146 3146 3147 3148 3148 3149 3149 3149 3151 3151 3153 3154 3154 3155 3156 3157 3156 3156 3157
3150 3150 3151 3151 3150 3148 3146 3144 3142 3140 3141 3141 3142 3143 3144 3144 3145 3144 3143 3143 3142 3144 3144 3145 3145 3144 3145 3145 3146 3147 3147 3148 3149 3149 3150 3151 3152 3153 3154 3154 3155 3155 3156
3148 3148 3149 3149 3147 3147 3146 3144 3142 3141 3140 3140 3140 3141 3142 3142 3143 3143 3143 3143 3142 3142 3142 3143 3143 3144 3144 3144 3144 3145 3145 3146 3146 3147 3147 3148 3149 3150 3152 3152 3153 3153 3154
3148 3148 3148 3147 3146 3147 3146 3143 3142 3140 3138 3139 3139 3140 3140 3141 3141 3140 3141 3142 3141 3142 3142 3142 3142 3142 3143 3143 3143 3143 3143 3143 3144 3145 3146 3146 3147 3148 3148 3149 3151 3150 3150
3146 3147 3147 3146 3145 3145 3143 3142 3142 3139 3137 3138 3138 3139 3140 3141 3141 3140 3140 3139 3140 3141 3141 3140 3140 3141 3142 3142 3142 3141 3141 3142 3142 3143 3143 3144 3144 3145 3145 3146 3147 3147 3147
3144 3143 3144 3145 3146 3144 3142 3142 3141 3140 3139 3138 3139 3139 3139 3139 3140 3141 3141 3141 3140 3139 3139 3139 3139 3139 3140 3140 3140 3139 3139 3139 3140 3140 3141 3141 3141 3142 3143 3143 3143 3144 3145
3142 3143 3142 3142 3143 3142 3141 3141 3141 3140 3138 3140 3138 3138 3137 3137 3138 3139 3139 3138 3138 3138 3137 3136 3136 3137 3138 3138 3138 3137 3137 3136 3136 3137 3137 3137 3137 3138 3139 3139 3140 3140 3140
3140 3141 3142 3141 3141 3141 3139 3139 3140 3139 3138 3140 3139 3139 3137 3137 3137 3137 3137 3136 3136 3135 3135 3136 3136 3135 3136 3136 3135 3135 3134 3134 3134 3134 3133 3133 3133 3133 3134 3135 3136 3137 3137
3135 3137 3138 3137 3138 3138 3137 3138 3138 3138 3137 3138 3139 3137 3135 3136 3135 3135 3135 3135 3134 3134 3135 3134 3134 3135 3135 3135 3134 3132 3132 3131 3131 3131 3130 3130 3130 3129 3130 3130 3132 3133 3133
3130 3132 3133 3133 3134 3134 3134 3135 3135 3135 3135 3136 3136 3135 3132 3134 3134 3134 3133 3133 3132 3133 3133 3133 3133 3133 3133 3132 3131 3130 3129 3129 3129 3128 3128 3127 3127 3127 3127 3127 3127 3128 3128
3122 3125 3127 3128 3129 3129 3130 3131 3132 3132 3132 3133 3132 3132 3130 3130 3131 3131 3131 3130 3130 3130 3130 3129 3128 3129 3129 3130 3129 3128 3128 3126 3126 3125 3124 3123 3122 3122 3122 3122 3122 3123 3123
3117 3118 3121 3122 3124 3125 3126 3126 3128 3128 3128 3128 3128 3128 3128 3128 3128 3128 3127 3128 3127 3126 3126 3126 3125 3125 3124 3125 3124 3124 3124 3123 3122 3121 3120 3119 3119 3118 3118 3118 3118 3118 3119
3113 3114 3116 3117 3119 3120 3121 3121 3121 3122 3123 3123 3123 3123 3123 3124 3124 3125 3123 3123 3122 3123 3122 3121 3121 3121 3121 3120 3120 3120 3120 3120 3119 3118 3117 3115 3113 3111 3110 3112 3112 3113 3113
3110 3109 3110 3111 3113 3114 3115 3115 3114 3115 3116 3117 3117 3118 3117 3117 3117 3118 3118 3118 3118 3118 3118 3117 3115 3116 3115 3114 3113 3114 3115 3114 3114 3113 3112 3110 3109 3108 3107 3107 3106 3106 3106
3103 3103 3104 3105 3107 3107 3107 3108 3108 3108 3107 3110 3110 3110 3110 3110 3108 3112 3113 3112 3112 3113 3113 3112 3111 3110 3108 3107 3107 3106 3107 3107 3107 3107 3107 3104 3104 3102 3101 3101 3100 3099 3099
3096 3096 3097 3098 3100 3099 3098 3100 3100 3100 3101 3102 3102 3102 3095 3094 3103 3105 3107 3107 3106 3106 3106 3105 3102 3101 3100 3100 3099 3100 3098 3098 3099 3098 3098 3099 3098 3096 3094 3093 3092 3091 3090
3085 3086 3089 3091 3090 3090 3089 3091 3092 3092 3093 3093 3095 3091 3091 3096 3097 3099 3100 3099 3098 3098 3097 3095 3093 3091 3090 3090 3090 3090 3090 3088 3089 3089 3088 3091 3088 3088 3086 3086 3085 3083 3082
3073 3075 3077 3078 3079 3079 3081 3082 3083 3083 3084 3084 3085 3086 3088 3091 3093 3092 3092 3091 3090 3089 3087 3086 3084 3083 3082 3081 3082 3081 3082 3080 3080 3078 3079 3078 3079 3080 3077 3077 3074 3074 3073
3066 3066 3066 3067 3067 3067 3068 3068 3072 3072 3072 3076 3075 3079 3084 3085 3085 3083 3083 3083 3082 3080 3079 3078 3078 3076 3075 3074 3075 3075 3074 3072 3072 3071 3071 3068 3069 3068 3067 3067 3067 3064 3064
3061 3061 3059 3057 3056 3052 3055 3061 3063 3067 3068 3069 3074 3075 3077 3078 3077 3077 3077 3076 3076 3075 3074 3073 3072 3070 3069 3069 3068 3068 3067 3066 3065 3064 3063 3061 3060 3059 3058 3057 3057 3054 3052
3061 3061 3061 3060 3059 3057 3051 3058 3063 3063 3064 3066 3070 3070 3072 3074 3075 3075 3072 3071 3071 3071 3069 3069 3068 3066 3065 3065 3064 3062 3060 3059 3057 3056 3055 3054 3053 3052 3050 3048 3047 3045 3043
3060 3062 3064 3063 3060 3060 3061 3060 3062 3063 3063 3064 3066 3068 3069 3070 3071 3071 3070 3069 3067 3066 3066 3065 3062 3061 3060 3059 3057 3055 3053 3052 3050 3049 3048 3046 3045 3042 3040 3039 3037 3036 3035
3060 3056 3057 3060 3061 3062 3062 3062 3062 3060 3060 3063 3062 3062 3064 3064 3065 3064 3063 3062 3062 3060 3059 3058 3056 3054 3054 3051 3047 3047 3047 3045 3043 3041 3040 3038 3036 3034 3032 3031 3030 3028 3026
3051 3053 3054 3056 3056 3059 3058 3057 3059 3060 3058 3058 3060 3059 3059 3060 3060 3059 3057 3057 3057 3055 3053 3050 3050 3048 3046 3045 3042 3040 3039 3037 3036 3034 3031 3028 3025 3023 3022 3022 3022 3019 3015
3047 3046 3049 3051 3049 3052 3051 3053 3052 3053 3056 3057 3055 3054 3054 3055 3055 3053 3053 3051 3050 3047 3045 3043 3041 3039 3038 3036 3036 3034 3031 3030 3028 3026 3023 3019 3017 3016 3015 3013 3011 3010 3006
3042 3042 3043 3042 3045 3046 3046 3047 3049 3049 3052 3051 3051 3050 3051 3048 3049 3047 3046 3045 3044 3042 3041 3039 3037 3036 3034 3032 3031 3029 3026 3023 3020 3018 3015 3012 3010 3008 3005 3003 3001 2999 2996
Wind_Speed
3 5 4 7 6 8 8 5 5 4 3 3 5 8 10 9 8 7 7 7 7 8 9 8 9 9 9 11 12 12 13 12 12 11 10 11 10 14 10 9 8 7 5
4 3 4 5 4 8 8 7 6 3 0 2 3 5 5 6 7 8 9 8 6 7 7 7 8 7 7 7 8 10 11 12 12 12 12 11 13 10 12 11 10 7 5
2 4 5 5 6 8 7 6 6 5 4 3 3 3 2 3 4 7 8 9 7 7 7 6 7 7 7 7 7 7 8 10 11 10 10 9 10 13 12 11 10 12 10
4 6 6 5 5 7 6 6 7 8 5 5 2 2 2 2 2 1 3 5 7 8 10 9 8 7 7 8 9 9 8 8 8 9 9 9 11 13 10 15 15 14 10
4 5 7 7 6 7 7 7 7 10 6 5 3 3 2 2 2 2 1 1 4 7 8 9 9 9 9 9 9 9 9 9 10 10 10 11 12 12 13 13 14 14 16
8 6 5 8 10 7 7 6 5 5 8 2 5 4 2 2 5 6 6 5 5 6 8 8 7 8 8 9 9 10 10 10 10 10 12 13 13 13 14 13 17 15 16
13 11 10 11 10 8 7 6 6 2 4 2 2 5 5 5 7 10 11 13 13 12 8 7 8 7 8 9 9 9 9 9 10 11 12 13 13 15 14 15 16 20 19
14 13 11 11 14 13 9 8 8 5 2 4 3 3 3 6 8 10 10 9 8 7 7 6 7 7 7 9 11 12 13 13 14 14 15 15 15 15 15 17 16 20 20
14 15 10 11 15 14 12 11 10 8 6 6 7 5 5 7 7 7 7 8 10 7 4 4 4 4 6 9 11 13 13 15 15 15 16 16 16 16 16 17 21 17 21
17 15 14 12 14 16 15 14 13 12 11 10 10 7 5 9 10 10 9 8 7 10 9 7 9 11 12 12 12 12 13 13 15 15 15 15 15 15 15 17 19 19 16
20 19 15 13 17 19 17 18 17 16 16 15 15 12 10 10 11 12 12 12 11 9 13 16 14 14 16 16 15 15 15 15 14 14 15 15 16 16 17 18 19 19 21
26 23 18 15 17 21 20 19 21 21 20 19 18 14 13 14 14 14 13 13 14 14 14 18 18 12 14 17 17 17 18 18 17 17 16 17 16 17 18 18 19 20 18
25 26 23 20 18 21 23 22 22 23 22 21 21 20 24 25 17 16 17 16 16 15 16 16 20 19 20 20 18 18 17 22 17 19 19 18 18 19 19 17 19 21 21
28 27 25 24 22 24 26 25 24 26 24 23 24 23 20 18 17 20 19 18 17 16 19 20 22 21 22 22 22 22 20 20 21 21 21 21 22 22 22 22 24 24 25
25 27 29 29 29 26 29 30 29 30 28 24 23 25 24 20 20 19 20 19 18 19 22 24 26 26 26 26 27 25 23 23 23 22 25 22 25 29 26 24 25 26 28
34 35 34 34 35 34 34 32 31 32 31 31 30 29 31 17 20 21 21 20 22 23 25 27 29 31 28 32 28 31 27 27 24 24 24 27 29 30 30 30 30 29 29
47 48 46 41 39 37 37 35 34 34 32 28 30 27 17 18 20 21 21 22 24 26 29 30 29 29 30 28 28 28 36 29 28 32 24 32 27 34 32 36 37 30 34
36 37 36 33 38 40 35 35 36 35 32 36 26 21 19 22 24 21 22 24 25 27 27 27 26 25 26 26 29 31 34 29 29 26 30 30 30 36 35 37 40 39 37
24 25 29 31 36 36 34 29 29 27 30 21 16 16 17 19 19 20 21 22 20 19 20 20 21 21 18 18 19 21 22 23 22 28 28 29 33 32 31 35 36 40 40
11 16 17 14 8 16 21 17 16 20 21 11 9 16 15 15 13 17 15 13 10 13 16 17 17 16 17 19 21 24 22 26 25 27 26 28 28 31 30 29 32 34 36
8 7 6 7 12 13 8 8 9 12 11 16 18 15 17 16 11 10 13 14 13 15 19 13 16 17 17 18 18 18 20 21 23 23 25 26 28 30 31 31 31 37 26
7 7 9 9 4 6 9 9 7 9 13 9 11 20 17 15 12 15 14 17 17 17 17 17 19 19 20 21 21 23 25 25 25 24 25 26 27 28 30 31 31 29 29
12 13 5 9 10 11 13 6 12 16 5 10 18 10 15 13 16 16 18 19 18 18 19 20 21 23 22 25 27 28 27 27 28 29 29 30 30 30 31 30 30 32 32
18 19 19 18 15 12 13 18 18 16 16 13 17 18 18 17 16 16 19 21 20 24 28 29 28 26 26 26 27 28 29 28 29 31 31 32 32 33 31 32 29 29 30
15 14 12 15 17 18 20 18 18 19 19 19 21 21 19 19 19 19 19 23 27 26 25 24 24 23 22 23 23 24 24 25 25 25 23 23 23 24 28 30 30 30 29
12 11 11 14 16 17 16 17 17 16 19 18 17 21 17 15 18 23 22 18 13 10 11 12 14 16 16 14 15 19 21 21 22 24 24 26 27 27 28 28 28 29 29
Wind_Direction
232 253 305 331 329 329 334 324 335 12 79 130 186 207 216 215 221 234 251 255 268 280 275 267 265 262 264 263 258 254 255 261 270 272 265 264 259 238 283 282 274 269 263
236 252 302 314 332 341 344 345 334 343 29 184 196 217 243 265 276 262 247 244 251 267 281 274 265 270 266 260 255 253 254 260 267 269 267 271 235 247 268 274 270 271 240
294 250 258 311 348 341 339 351 338 319 296 249 224 207 234 274 288 295 294 289 268 255 261 273 267 258 257 254 255 257 260 265 266 256 260 268 238 265 273 283 251 282 277
275 249 256 293 336 327 323 340 344 336 302 265 254 252 212 198 205 260 313 300 294 287 281 272 265 262 252 256 259 261 262 265 263 256 261 252 253 256 256 251 265 267 276
233 296 277 287 301 307 330 330 331 342 330 243 214 204 213 288 305 311 287 289 304 296 282 274 273 268 265 263 264 269 268 266 263 260 260 259 257 255 255 253 257 269 267
229 219 247 272 275 293 312 316 324 346 360 271 206 212 226 294 309 311 326 339 351 332 309 295 283 274 269 265 262 263 266 268 271 270 268 266 266 258 257 260 257 250 269
232 249 256 256 258 265 284 294 285 290 21 332 189 216 239 277 283 286 290 289 287 293 293 278 271 267 269 269 266 265 265 266 269 271 271 269 268 266 250 260 243 271 271
249 247 257 269 256 258 260 270 277 277 307 282 290 281 288 297 297 295 297 293 296 279 271 283 287 280 278 276 273 269 271 272 274 275 274 273 269 265 258 251 251 251 264
260 247 254 260 252 256 255 260 263 266 253 265 272 285 315 307 304 302 297 293 274 251 269 282 285 307 328 317 302 290 278 279 279 281 282 280 276 271 261 252 249 240 256
257 245 262 260 251 251 255 261 261 258 255 252 276 288 304 305 312 304 297 294 290 269 244 269 276 279 294 306 296 290 291 289 282 281 284 283 284 278 275 270 260 254 245
248 239 260 256 259 251 248 255 259 261 259 258 269 283 295 303 308 307 297 288 283 277 268 280 277 281 288 298 297 295 295 294 289 282 278 278 278 277 270 261 259 256 256
242 237 256 251 254 254 254 257 258 260 260 260 269 279 291 297 299 298 297 292 284 279 279 279 286 294 282 282 284 288 285 291 291 289 287 289 286 285 278 272 268 262 258
236 238 244 250 252 249 251 248 251 257 259 265 264 272 282 282 281 286 288 285 279 275 274 282 289 295 294 292 290 294 281 287 283 290 288 285 286 288 283 271 265 261 257
241 238 239 248 252 253 256 251 250 257 257 256 259 270 282 261 268 275 283 279 276 280 281 282 282 289 292 295 293 288 285 286 284 275 285 276 281 285 281 275 272 265 261
237 242 247 254 255 252 256 254 252 250 248 251 271 281 270 263 262 274 279 275 275 279 279 281 284 285 285 284 286 281 286 277 280 268 276 271 282 285 280 282 279 275 272
250 261 259 262 259 260 259 260 254 251 251 255 266 272 269 266 269 275 272 275 279 282 286 287 285 284 280 285 279 281 276 279 275 276 268 283 277 277 278 281 278 278 273
257 261 265 264 261 258 257 254 254 250 246 260 260 269 274 273 280 275 274 278 283 285 284 283 281 279 278 272 270 271 281 266 277 269 272 276 265 270 270 276 277 276 277
255 256 256 251 247 247 244 247 247 249 255 259 261 272 276 270 267 271 278 284 285 285 285 283 282 280 278 275 278 268 277 264 273 274 278 278 272 276 266 279 266 273 259
264 261 246 242 238 236 229 239 243 258 259 243 260 273 259 259 270 277 281 284 289 296 298 294 291 290 289 282 280 282 276 282 282 277 274 272 272 277 276 273 273 271 262
259 231 217 220 222 200 213 237 247 250 256 255 280 273 282 279 282 282 286 285 291 293 295 300 297 293 287 280 277 281 288 280 286 282 279 278 281 275 284 281 281 277 274
37 345 340 25 345 334 335 326 301 289 274 257 266 260 285 276 267 290 293 290 279 284 288 296 298 295 292 290 290 291 292 295 293 293 292 292 290 292 291 292 296 293 280
310 321 9 350 302 359 337 342 332 292 273 263 258 282 264 268 260 256 259 270 285 286 287 289 289 289 289 289 287 287 290 296 301 298 296 296 298 299 299 298 298 295 290
282 294 322 334 308 278 301 283 251 259 196 251 255 254 280 257 260 262 267 276 283 286 289 290 290 289 292 291 291 293 298 296 292 292 293 292 292 298 293 291 292 291 288
248 254 266 244 250 259 242 235 253 246 250 220 249 260 261 270 269 272 274 280 286 293 294 292 291 289 286 284 285 286 290 291 293 294 292 295 292 298 297 294 290 285 287
271 269 261 255 243 239 240 247 236 245 246 251 263 270 275 268 277 277 278 287 295 292 289 290 292 292 290 290 291 290 291 290 292 293 297 301 301 299 298 299 296 295 292
270 254 249 247 242 242 240 242 245 249 256 264 265 268 277 277 287 289 293 297 300 300 298 297 292 294 305 310 301 302 303 302 301 301 301 301 301 301 300 300 299 298 297